TimeEST,TemperatureF,Dew PointF,Humidity,Sea Level PressureIn,VisibilityMPH,Wind Direction,Wind SpeedMPH,Gust SpeedMPH,PrecipitationIn,Events,Conditions,WindDirDegrees,DateUTC
12:53 AM,69.1,60.1,73,29.99,10.0,North,9.2,16.1,N/A,,Partly Cloudy,350,2012-11-21 05:53:00
1:53 AM,68.0,59.0,73,29.98,10.0,Variable,5.8,-,N/A,,Clear,0,2012-11-21 06:53:00
2:53 AM,66.9,59.0,76,29.96,10.0,Variable,5.8,-,N/A,,Clear,0,2012-11-21 07:53:00
3:53 AM,66.0,57.9,75,29.98,10.0,NNW,8.1,18.4,N/A,,Clear,340,2012-11-21 08:53:00
4:53 AM,66.0,57.9,75,29.98,10.0,NNW,9.2,17.3,N/A,,Clear,340,2012-11-21 09:53:00
5:53 AM,64.9,55.9,73,29.99,10.0,NNW,9.2,17.3,N/A,,Clear,340,2012-11-21 10:53:00
6:53 AM,64.9,57.0,75,30.01,10.0,NNW,10.4,-,N/A,,Clear,340,2012-11-21 11:53:00
7:53 AM,66.0,57.9,75,30.02,10.0,NNW,8.1,-,N/A,,Clear,340,2012-11-21 12:53:00
8:53 AM,68.0,57.9,70,30.02,10.0,NNW,8.1,17.3,N/A,,Clear,330,2012-11-21 13:53:00
9:53 AM,70.0,59.0,68,30.03,10.0,NNW,11.5,18.4,N/A,,Clear,340,2012-11-21 14:53:00
10:53 AM,70.0,59.0,68,30.03,10.0,NNW,9.2,20.7,N/A,,Mostly Cloudy,340,2012-11-21 15:53:00
11:53 AM,71.1,59.0,66,30.01,10.0,NNW,10.4,19.6,N/A,,Clear,330,2012-11-21 16:53:00
12:53 PM,72.0,55.9,57,29.99,10.0,NNW,13.8,23.0,N/A,,Clear,330,2012-11-21 17:53:00
1:53 PM,72.0,55.9,57,29.96,10.0,NNW,13.8,23.0,N/A,,Clear,330,2012-11-21 18:53:00
2:53 PM,72.0,57.0,59,29.95,10.0,North,6.9,-,N/A,,Clear,350,2012-11-21 19:53:00
3:53 PM,72.0,55.9,57,29.95,10.0,NW,10.4,17.3,N/A,,Clear,320,2012-11-21 20:53:00
4:53 PM,72.0,55.0,55,29.96,10.0,NW,10.4,-,N/A,,Clear,320,2012-11-21 21:53:00
5:53 PM,70.0,55.9,61,29.97,10.0,NW,11.5,20.7,N/A,,Clear,320,2012-11-21 22:53:00
6:53 PM,70.0,57.0,63,29.97,10.0,NNW,9.2,18.4,N/A,,Clear,330,2012-11-21 23:53:00
7:53 PM,71.1,59.0,66,30.00,10.0,NNW,10.4,20.7,N/A,,Mostly Cloudy,340,2012-11-22 00:53:00
8:53 PM,70.0,53.1,55,30.02,10.0,NNE,11.5,-,N/A,,Clear,20,2012-11-22 01:53:00
9:53 PM,68.0,48.9,50,30.03,10.0,North,15.0,25.3,N/A,,Clear,10,2012-11-22 02:53:00
10:53 PM,68.0,50.0,52,30.05,10.0,North,13.8,23.0,N/A,,Clear,10,2012-11-22 03:53:00
11:53 PM,66.9,48.9,52,30.04,10.0,North,13.8,20.7,N/A,,Clear,10,2012-11-22 04:53:00